Concordia, KS

11:37 PM CST on December 12, 2017 (GMT -0600)
Blosser Municipal

Weather History for KCNK - October, 2013

Change the Weather History Date:

Monday, October 28, 2013

  Actual Average Record
Temperature  
Mean Temperature 49 °F 51 °F  
Max Temperature 61 °F 62 °F 85 °F (1922)
Min Temperature 36 °F 40 °F 15 °F (1925)
Degree Days  
Heating Degree Days 16 14  
Month to date heating degree days 280 273  
Since 1 July heating degree days 301 346  
Cooling Degree Days 0 0  
Month to date cooling degree days 32 20  
Year to date cooling degree days 1359 1346  
Moisture  
Dew Point 48 °F    
Average Humidity 83    
Maximum Humidity 100    
Minimum Humidity 66    
Precipitation  
Precipitation 0.03 in 0.05 in 0.79 in (2000)
Month to date precipitation 0.78 1.78  
Year to date precipitation 25.48 25.79  
Snow  
Snow 0.00 in 0.00 in T in (1980)
Month to date snowfall 0.0 0.1  
Year to date snowfall 20.3 13.8  
Since 1 July snowfall 0.0 0.1  
Snow Depth 0.00 in    
Sea Level Pressure  
Sea Level Pressure 30.02 in    
Wind  
Wind Speed 9 mph (ESE)    
Max Wind Speed 21 mph    
Max Gust Speed 26 mph    
Visibility 8 miles    
Events Rain , Thunderstorm    
T = Trace of Precipitation, MM = Missing Value Source: NWS Daily Summary

Daily Weather History Graph

Daily Weather History Graph

Search for Another Location

Airport or City:

Trip Planner

Search our weather history database for the weather conditions in past years. The results will help you decide how hot, cold, wet, or windy it might be!

Date:

Astronomy

Oct. 28, 2013 Rise Set
Actual Time 7:54 AM CDT 6:33 PM CDT
Civil Twilight 7:27 AM CDT 7:01 PM CDT
Nautical Twilight 6:55 AM CDT 7:32 PM CDT
Astronomical Twilight 6:24 AM CDT 8:03 PM CDT
Moon 1:50 AM CDT (10/28) 3:14 PM CDT (10/28)
Length of Visible Light 11h 33m
Length of Day
10h 38m
Waning Crescent, 34% of the Moon is Illuminated
Oct 28
Waning Crescent
Nov 3
New
Nov 9
First Quarter
Nov 17
Full
Nov 25
Last Quarter

Hourly Weather History & Observations

Time (CDT) Temp. Windchill Dew Point Humidity Pressure Visibility Wind Dir Wind Speed Gust Speed Precip Events Conditions
12:55 AM 51.1 °F - - N/A% 29.90 in 10.0 mi South 11.5 mph - N/A   Clear
1:55 AM 46.9 °F - - N/A% 29.91 in 10.0 mi East 3.5 mph - N/A   Clear
2:55 AM 43.0 °F 39.5 °F - N/A% 29.93 in 10.0 mi NNE 5.8 mph - N/A   Clear
3:55 AM 39.9 °F 36.7 °F - N/A% 29.95 in 10.0 mi NE 4.6 mph - N/A   Clear
4:55 AM 37.9 °F 34.4 °F - N/A% 29.96 in 10.0 mi ESE 4.6 mph - N/A   Clear
5:55 AM 37.0 °F 34.5 °F - N/A% 29.98 in 10.0 mi ESE 3.5 mph - N/A   Clear
6:55 AM 37.0 °F 31.6 °F - N/A% 30.00 in 8.0 mi SE 6.9 mph - N/A   Clear
7:55 AM 37.9 °F 35.5 °F 30.9 °F 76% 30.01 in 10.0 mi ESE 3.5 mph - N/A   Clear
8:55 AM 43.0 °F 41.3 °F 34.0 °F 71% 30.02 in 10.0 mi East 3.5 mph - N/A   Clear
9:55 AM 43.0 °F 38.8 °F 35.1 °F 74% 30.06 in 10.0 mi ENE 6.9 mph - N/A   Clear
10:55 AM 50.0 °F - 39.0 °F 66% 30.08 in 10.0 mi East 6.9 mph - N/A   Clear
11:55 AM 55.9 °F - 46.9 °F 72% 30.07 in 8.0 mi SE 8.1 mph - N/A   Clear
12:29 PM 54.0 °F - 50.0 °F 86% 30.08 in 5.0 mi SE 6.9 mph - N/A   Mostly Cloudy
12:44 PM 54.0 °F - 50.0 °F 86% 30.08 in 5.0 mi SE 8.1 mph - N/A   Overcast
12:55 PM 54.0 °F - 50.0 °F 86% 30.07 in 5.0 mi SE 10.4 mph - N/A   Overcast
1:55 PM 55.0 °F - 51.1 °F 86% 30.05 in 5.0 mi ESE 9.2 mph - N/A   Overcast
2:55 PM 55.9 °F - 51.1 °F 84% 30.04 in 7.0 mi East 10.4 mph - N/A   Overcast
3:46 PM 59.0 °F - 52.0 °F 78% 30.02 in 6.0 mi East 11.5 mph - N/A   Haze
3:55 PM 59.0 °F - 52.0 °F 78% 30.02 in 6.0 mi ESE 10.4 mph - N/A   Haze
4:55 PM 60.1 °F - 52.0 °F 75% 30.02 in 6.0 mi East 11.5 mph - N/A   Haze
5:18 PM 61.0 °F - 53.1 °F 75% 30.01 in 8.0 mi ESE 13.8 mph 21.9 mph N/A   Mostly Cloudy
5:55 PM 59.0 °F - 53.1 °F 81% 30.02 in 8.0 mi SE 18.4 mph - N/A   Mostly Cloudy
6:25 PM 59.0 °F - 53.1 °F 81% 30.02 in 9.0 mi SE 12.7 mph - N/A   Mostly Cloudy
6:55 PM 57.9 °F - 52.0 °F 81% 30.04 in 9.0 mi ESE 13.8 mph 23.0 mph N/A   Overcast
7:55 PM 57.9 °F - 52.0 °F 81% 30.06 in 9.0 mi ESE 11.5 mph - N/A   Overcast
8:36 PM 57.0 °F - 52.0 °F 83% 30.03 in 8.0 mi ESE 16.1 mph 25.3 mph N/A   Overcast
8:47 PM 57.0 °F - 52.0 °F 83% 30.04 in 8.0 mi SE 18.4 mph 23.0 mph N/A   Overcast
8:55 PM 55.9 °F - 52.0 °F 87% 30.05 in 7.0 mi SE 13.8 mph 23.0 mph N/A   Overcast
9:24 PM 55.0 °F - 53.1 °F 93% 30.04 in 4.0 mi East 9.2 mph - 0.03 in Rain , Thunderstorm Thunderstorms and Rain
9:55 PM 55.0 °F - 53.1 °F 93% 30.07 in 5.0 mi North 4.6 mph - 0.03 in Thunderstorm Overcast
10:12 PM 54.0 °F - 53.1 °F 97% 30.06 in 4.0 mi East 5.8 mph - N/A   Overcast
10:55 PM 53.1 °F - 52.0 °F 96% 30.06 in 5.0 mi East 8.1 mph - 0.00 in   Overcast
11:47 PM 52.0 °F - 51.1 °F 97% 30.04 in 5.0 mi East 11.5 mph - N/A   Overcast
11:55 PM 52.0 °F - 51.1 °F 97% 30.04 in 5.0 mi East 12.7 mph - N/A   Overcast